Fort Eustis, VA

1:51 PM EDT on May 26, 2017 (GMT -0400)
Felker Army Air Field

Weather History for KFAF - December, 2012

Change the Weather History Date:

Sunday, December 30, 2012

  Actual Average Record
Temperature  
Mean Temperature 38 °F -  
Max Temperature 45 °F 49 °F 71 °F (1996)
Min Temperature 31 °F 34 °F 23 °F (2010)
Degree Days  
Heating Degree Days 26    
Moisture  
Dew Point 24 °F    
Average Humidity 54    
Maximum Humidity 70    
Minimum Humidity 37    
Precipitation  
Precipitation 0.01 in - - ()
Sea Level Pressure  
Sea Level Pressure 30.16 in    
Wind  
Wind Speed 12 mph (NW)    
Max Wind Speed 23 mph    
Max Gust Speed 33 mph    
Visibility 10 miles    
Events      
Averages and records for this station are not official NWS values.
T = Trace of Precipitation, MM = Missing Value Source: NWS Daily Summary

Daily Weather History Graph

Daily Weather History Graph

Search for Another Location

Airport or City:

Trip Planner

Search our weather history database for the weather conditions in past years. The results will help you decide how hot, cold, wet, or windy it might be!

Date:

Astronomy

Dec. 30, 2012 Rise Set
Actual Time 7:19 AM EST 4:58 PM EST
Civil Twilight 6:50 AM EST 5:27 PM EST
Nautical Twilight 6:18 AM EST 6:00 PM EST
Astronomical Twilight 5:46 AM EST 6:32 PM EST
Moon 7:24 PM EST (12/30) 8:30 AM EST (12/30)
Length of Visible Light 10h 37m
Length of Day
9h 39m
Waning Gibbous, 95% of the Moon is Illuminated
Dec 30
Waning Gibbous
Jan 4
Last Quarter
Jan 11
New
Jan 18
First Quarter
Jan 26
Full

Hourly Weather History & Observations

Time (EST) Temp. Windchill Dew Point Humidity Pressure Visibility Wind Dir Wind Speed Gust Speed Precip Events Conditions
12:55 AM 40.5 °F 32.8 °F 30.4 °F 67% 29.85 in 10.0 mi NW 13.8 mph 19.6 mph N/A   Clear
1:55 AM 41.0 °F 33.1 °F 27.3 °F 58% 29.88 in 10.0 mi NW 15.0 mph - N/A   Clear
2:55 AM 39.9 °F 32.9 °F 28.9 °F 65% 29.92 in 10.0 mi WNW 11.5 mph - N/A   Clear
3:55 AM 38.1 °F 31.7 °F 27.1 °F 65% 29.94 in 10.0 mi West 9.2 mph - N/A   Clear
4:55 AM 36.9 °F 28.7 °F 27.9 °F 70% 29.96 in 10.0 mi WNW 12.7 mph - N/A   Clear
5:55 AM 37.0 °F 29.8 °F 26.8 °F 66% 30.01 in 10.0 mi WNW 10.4 mph - N/A   Clear
6:55 AM 36.9 °F 29.6 °F 26.4 °F 66% 30.06 in 10.0 mi West 10.4 mph - N/A   Clear
7:55 AM 38.5 °F 28.9 °F 23.9 °F 56% 30.11 in 10.0 mi NW 18.4 mph 25.3 mph N/A   Clear
8:55 AM 39.7 °F 31.9 °F 23.2 °F 52% 30.15 in 10.0 mi NW 13.8 mph - N/A   Clear
9:55 AM 41.2 °F 34.1 °F 24.1 °F 51% 30.18 in 10.0 mi NW 12.7 mph 20.7 mph N/A   Clear
10:55 AM 42.6 °F 34.9 °F 22.8 °F 46% 30.20 in 10.0 mi NW 16.1 mph 26.5 mph N/A   Partly Cloudy
11:55 AM 44.1 °F 35.2 °F 21.2 °F 40% 30.19 in 10.0 mi NW 23.0 mph 29.9 mph N/A   Partly Cloudy
12:55 PM 44.1 °F 35.2 °F 20.8 °F 40% 30.18 in 10.0 mi NW 23.0 mph 33.4 mph 0.01 in   Clear
1:55 PM 44.6 °F 36.6 °F 19.6 °F 37% 30.19 in 10.0 mi NW 19.6 mph 29.9 mph N/A   Clear
2:55 PM 45.1 °F 38.4 °F 20.8 °F 38% 30.22 in 10.0 mi NW 15.0 mph 19.6 mph N/A   Clear
3:55 PM 44.1 °F 37.7 °F 21.7 °F 41% 30.25 in 10.0 mi WNW 12.7 mph - N/A   Clear
4:55 PM 42.4 °F 36.5 °F 20.1 °F 41% 30.27 in 10.0 mi WNW 10.4 mph 17.3 mph N/A   Clear
5:55 PM 39.9 °F 35.1 °F 22.5 °F 50% 30.29 in 10.0 mi WNW 6.9 mph - N/A   Clear
6:55 PM 38.3 °F - 21.7 °F 51% 30.29 in 10.0 mi Calm Calm - N/A   Clear
7:55 PM 33.6 °F - 23.0 °F 65% 30.31 in 10.0 mi Calm Calm - N/A   Clear
8:55 PM 35.8 °F - 22.5 °F 58% 30.32 in 10.0 mi Calm Calm - N/A   Clear
9:55 PM 35.1 °F 32.2 °F 20.1 °F 55% 30.35 in 10.0 mi NNW 3.5 mph - N/A   Clear
10:55 PM 32.4 °F - 21.0 °F 63% 30.37 in 10.0 mi Calm Calm - N/A   Clear
11:55 PM 31.6 °F - 21.6 °F 66% 30.35 in 10.0 mi Calm Calm - N/A   Clear